Starlink 31092

operational
NORAD ID: 58628 Int'l Des: 2023-203 Owner: SPXS Country: US Constellation: starlink
LEOCIRCULAR

Über Starlink 31092

Beschreibung wird geladen...

Live-Position

3D-Globus wird geladen...

Nächste Überflüge

Höhenverlauf

Altitude vs Time

uPlot chart will show altitude changes over time

Zweizeiliger Elementsatz

1 58628U 23203L 25352.55280152 -.00000144 00000-0 42976-5 0 9997
2 58628 43.0013 165.2141 0001168 252.0970 107.9754 15.27584319111150
Epoch: 18. Dez. 2025 • Age: 11 hours

Aktueller Status

Höhe 483.2 km
Geschwindigkeit 7.63 km/s
Subsatellitenpunkt -1.71°S, 69.33°E
Startdatum 23. Dez. 2023
Alter 1.9 years
Typ internet

Technische Details

Klassifizierung Payload
Masse 730.00 kg
Trockenmasse 700.00 kg
Gesamtmasse 730.00 kg
Länge 0.30 m
Durchmesser 4.10 m
Spannweite 29.00 m
Form Box + pan
Hersteller SPXS
Bus-Typ Starlink V2M
Phasenstatus In Orbit
Besitzer/Staat SPXS/US

Große Konstellationen

Loading constellations...